Content
SEND FEEDBACK

Daily
Averages
Monthly
Summary
United States of America

FAYETTEVILLE, TENNESSEE


Home > North America > United States > Tennessee
Elevation: 700 feet     Latitude: 35 10N     Longitude: 086 33W

WEATHER
 
SELECT A DAY
Number of Records: 297,994;   Date Range: 4/22/02 - 7/29/14
 
SHARE

PRINT THIS DATA

[ ← Previous Day ]
WEATHER ALMANAC - OCTOBER 19, 2013
[ Next Day → ]
[ °C ]   °F
Weather ElementAverageHighLow
Temperature53.6 °F66.2 °F (11:55 am)42.8 °F (11:15 pm)
Dewpoint46.8 °F50 °F (12:35 am)39.2 °F (11:35 pm)
Humidity80 %100 % (12:35 am)49 % (2:35 pm)
Barometer29.99 in30.06 in (9:35 pm)29.94 in (4:15 am)
Wind Speed3.8 mph16.1 mph (4:35 pm)
Wind Gust20.7 mph (3:15 pm)
Weather ElementAverage
Visibility9.7 mi
Wind DirectionSE (132.3 °)

Weather ElementTotal
Precipitation---
Heating Degree Days10.5 (Base 65)
Growing Degree Days4.5 (Base 50)
Averaged from 66 records on October 19, 2013
WEATHER CONDITIONS BREAKOUT
WIND DIRECTION BREAKOUT
WEATHER BY HOUR - OCTOBER 19, 2013
[ °C ]   °F
Local TimeTemperatureDewpointHumidityBarometerVisibilityWind DirectionWind SpeedGust SpeedPrecipitationEventsConditions
12:35 AM50.0 °F50.0 °F100 %30.00 in10.0 miCalmClear
12:55 AM51.8 °F50.0 °F94 %30.01 in10.0 miCalmClear
1:15 AM51.8 °F50.0 °F94 %30.00 in10.0 miCalmScattered Clouds
1:35 AM50.0 °F50.0 °F100 %29.99 in7.0 miCalmClear
1:55 AM50.0 °F50.0 °F100 %29.97 in7.0 miCalmScattered Clouds
2:15 AM51.8 °F50.0 °F94 %29.97 in7.0 miCalmScattered Clouds
2:35 AM51.8 °F50.0 °F94 %29.97 in7.0 miCalmScattered Clouds
2:55 AM51.8 °F50.0 °F94 %29.96 in7.0 miCalmScattered Clouds
3:15 AM51.8 °F50.0 °F94 %29.96 in10.0 miCalmClear
3:35 AM51.8 °F50.0 °F94 %29.95 in10.0 miCalmScattered Clouds
3:55 AM51.8 °F50.0 °F94 %29.96 in10.0 miCalmScattered Clouds
4:15 AM51.8 °F50.0 °F94 %29.94 in7.0 miCalmScattered Clouds
4:35 AM51.8 °F50.0 °F94 %29.95 in10.0 miCalmScattered Clouds
4:55 AM51.8 °F50.0 °F94 %29.94 in10.0 miCalmScattered Clouds
5:15 AM51.8 °F50.0 °F94 %29.94 in10.0 miCalmScattered Clouds
5:35 AM51.8 °F48.2 °F88 %29.94 in10.0 miCalmClear
5:55 AM51.8 °F50.0 °F94 %29.94 in10.0 miCalmClear
6:15 AM50.0 °F50.0 °F100 %29.95 in10.0 miCalmClear
6:35 AM50.0 °F50.0 °F100 %29.95 in10.0 miCalmClear
6:55 AM50.0 °F50.0 °F100 %29.95 in10.0 miCalmClear
7:15 AM51.8 °F50.0 °F94 %29.96 in10.0 miCalmClear
7:35 AM51.8 °F50.0 °F94 %29.96 in10.0 miCalmClear
7:55 AM51.8 °F50.0 °F94 %29.96 in7.0 miCalmClear
8:15 AM51.8 °F50.0 °F94 %29.97 in10.0 miCalmClear
8:35 AM51.8 °F50.0 °F94 %29.98 in10.0 miCalmClear
8:55 AM53.6 °F50.0 °F88 %29.97 in10.0 miCalmClear
9:15 AM55.4 °F50.0 °F82 %29.97 in10.0 miCalmClear
9:35 AM55.4 °F50.0 °F82 %30.00 in10.0 miSSW (200°)3.5 mphScattered Clouds
9:55 AM57.2 °F48.2 °F72 %30.00 in10.0 miSSW (210°)3.5 mphClear
10:15 AM59.0 °F48.2 °F67 %30.00 in10.0 miSouth (190°)5.8 mphScattered Clouds
10:35 AM60.8 °F48.2 °F63 %30.00 in10.0 miSSW (210°)8.1 mphMostly Cloudy
10:55 AM62.6 °F48.2 °F59 %30.00 in10.0 miWSW (240°)10.4 mphMostly Cloudy
11:15 AM62.6 °F48.2 °F59 %29.99 in10.0 miWSW (250°)10.4 mphClear
11:35 AM64.4 °F48.2 °F56 %29.99 in10.0 miWest (260°)9.2 mphScattered Clouds
11:55 AM66.2 °F48.2 °F52 %29.98 in10.0 miWSW (240°)15.0 mphScattered Clouds
1:55 PM62.6 °F50.0 °F63 %29.95 in10.0 miNW (310°)9.2 mphMostly Cloudy
2:15 PM64.4 °F48.2 °F56 %29.95 in10.0 miNNW (340°)9.2 mphMostly Cloudy
2:35 PM66.2 °F46.4 °F49 %29.95 in10.0 miWNW (290°)8.1 mphScattered Clouds
2:55 PM64.4 °F46.4 °F52 %29.96 in10.0 miNW (310°)9.2 mphScattered Clouds
3:15 PM66.2 °F46.4 °F49 %29.96 in10.0 miNW (310°)13.8 mph20.7 mphScattered Clouds
3:35 PM64.4 °F46.4 °F52 %29.97 in10.0 miNW (320°)13.8 mph18.4 mphScattered Clouds
3:55 PM66.2 °F46.4 °F49 %29.98 in10.0 miNorth (350°)15.0 mph20.7 mphScattered Clouds
4:15 PM60.8 °F46.4 °F59 %29.98 in10.0 miNW (320°)11.5 mphMostly Cloudy
4:35 PM62.6 °F46.4 °F55 %30.00 in10.0 miNW (320°)16.1 mph20.7 mphOvercast
4:55 PM59.0 °F44.6 °F59 %30.00 in10.0 miNNW (330°)10.4 mphScattered Clouds
5:15 PM59.0 °F44.6 °F59 %30.00 in10.0 miNNW (340°)11.5 mphScattered Clouds
5:35 PM59.0 °F44.6 °F59 %30.01 in10.0 miNNW (340°)11.5 mphScattered Clouds
5:55 PM55.4 °F44.6 °F67 %30.01 in10.0 miNorth (350°)10.4 mphMostly Cloudy
6:15 PM53.6 °F44.6 °F72 %30.02 in10.0 miNNW (330°)6.9 mphScattered Clouds
6:35 PM51.8 °F44.6 °F76 %30.02 in10.0 miNNW (340°)4.6 mphClear
6:55 PM51.8 °F44.6 °F76 %30.02 in10.0 miCalmClear
7:15 PM50.0 °F44.6 °F82 %30.02 in10.0 miCalmClear
7:35 PM50.0 °F42.8 °F76 %30.03 in10.0 miNNW (340°)3.5 mphClear
7:55 PM48.2 °F42.8 °F82 %30.04 in10.0 miNNW (330°)5.8 mphClear
8:15 PM48.2 °F42.8 °F82 %30.04 in10.0 miNNW (340°)3.5 mphClear
8:35 PM46.4 °F41.0 °F81 %30.05 in10.0 miNNW (340°)3.5 mphClear
8:55 PM46.4 °F41.0 °F81 %30.05 in10.0 miNNW (340°)3.5 mphClear
9:15 PM46.4 °F41.0 °F81 %30.05 in10.0 miCalmClear
9:35 PM44.6 °F41.0 °F87 %30.06 in10.0 miNNW (340°)3.5 mphClear
9:55 PM44.6 °F41.0 °F87 %30.06 in10.0 miCalmClear
10:15 PM44.6 °F41.0 °F87 %30.06 in10.0 miCalmClear
10:35 PM44.6 °F41.0 °F87 %30.06 in10.0 miCalmClear
10:55 PM44.6 °F41.0 °F87 %30.06 in10.0 miCalmClear
11:15 PM42.8 °F41.0 °F93 %30.06 in10.0 miCalmClear
11:35 PM42.8 °F39.2 °F87 %30.06 in10.0 miCalmClear
11:55 PM42.8 °F39.2 °F87 %30.06 in10.0 miCalmClear
Hourly data recorded from KMDQ, located miles away from Fayetteville, Tennessee







STORIES FROM OUR PARTNERS